Flag for U.S.A. Weather past 2 weeks in Fargo, North Dakota, U.S.A.

Now
52 °F

Clear.


Feels Like: 50 °F
Forecast: 47 / 72 °F
Wind: 7 mph from South

Location: Hector International Airport

Current Time: Sep 22, 2014 at 1:30:29 AM

Latest Report: Sep 22, 2014 at 12:53 AM


Visibility: 10 mi

Pressure: 30.21 "Hg

Humidity: 86%

Dew point: 48 °F

Location of FargoLocation

Historic Weather in Fargo — Graph

°F

Fargo temperature yesterday

Maximum temperature yesterday: 67 °F (at 4:53 PM)
Minimum temperature yesterday: 49 °F (at 5:53 AM)
Average temperature yesterday: 56 °F

Past Weeks' High & Low Weather Summary

 TemperatureHumidityPressure
High82 °F (Sep 7, 4:53 PM)96% (Sep 20, 6:53 AM)30.50 "Hg (Sep 20, 6:53 AM)
Low39 °F (Sep 13, 6:53 AM)32% (Sep 16, 2:53 PM)29.54 "Hg (Sep 19, 4:53 PM)
Average57 °F70%30.03 "Hg
* Reported Sep 6 11:53 PM — Sep 21 11:53 PM, Fargo, Weather by CustomWeather, © 2014

Note: Actual official high and low records may vary slightly from our data, if they occured in-between our weather recording intervals... More about our weather records

Advertising

Fargo weather history for previous 24 hours

 ConditionsComfort  
Time TempWeatherWind HumidityBarometerVisibility
11:53 PM
Sep 21
53 °FClear.7 mph83%30.22 "Hg10 mi
10:53 PM53 °FClear.6 mph86%30.22 "Hg10 mi
9:53 PM53 °FClear.6 mph83%30.22 "Hg10 mi
8:53 PM54 °FClear.6 mph86%30.22 "Hg10 mi
7:53 PM56 °FSunny.7 mph81%30.22 "Hg10 mi
6:53 PM62 °FSunny.7 mph67%30.21 "Hg10 mi
5:53 PM66 °FSunny.3 mph56%30.21 "Hg10 mi
4:53 PM67 °FSunny.3 mph55%30.22 "Hg10 mi
3:53 PM65 °FScattered clouds.7 mph59%30.22 "Hg10 mi
2:53 PM64 °FBroken clouds.10 mph63%30.23 "Hg10 mi
1:53 PM62 °FCloudy.7 mph67%30.24 "Hg10 mi
12:53 PM63 °FScattered clouds.8 mph68%30.24 "Hg10 mi
11:53 AM60 °FMostly cloudy.7 mph75%30.24 "Hg10 mi
10:53 AM56 °FLow clouds.N/A84%30.23 "Hg10 mi
9:53 AM55 °FOvercast.13 mph83%30.22 "Hg10 mi
8:53 AM54 °FPassing clouds.10 mph83%30.19 "Hg10 mi
7:53 AM51 °FClear.8 mph89%30.15 "Hg10 mi
6:53 AM50 °FClear.8 mph89%30.13 "Hg10 mi
5:53 AM49 °FClear.8 mph90%30.10 "Hg10 mi
4:53 AM51 °FClear.9 mph86%30.07 "Hg10 mi
3:53 AM50 °FPassing clouds.9 mph86%30.05 "Hg10 mi
2:53 AM52 °FClear.9 mph83%30.03 "Hg10 mi
1:53 AM54 °FPassing clouds.9 mph83%30.01 "Hg10 mi
Weather by CustomWeather, © 2014

See weather overviewHow to use our weather pages